Zurück zum Katalog

Z-Sat

Z-SAT

AktivAmateurfunkSSO
NORAD 49399·PAYLOAD·🇯🇵 Japan

Gestartet Nov 9, 2021 von Uchinoura Space Center

Loading…

Nächste Überflüge (nächste 24 Stunden)

TLE

AktuellSource: AMSAT

Epoche: Sep 14, 2026, 13:11 UTC

1 49399U 21102E   26257.54963263  .00003408  00000-0  16637-3 0  9991
2 49399  97.3264 290.1664 0014867 298.6870  61.2870 15.18850715267001

Verfolge Z-Sat in Echtzeit mit AllMySat

Download on the App Store